Regional Weather Roundup
Issued by NWS

Home | Current Version | Previous Version | Graphics & Text | Print | Product List | Glossary On
Versions: 1 2 3 4 5 6 7 8 9 10 11 12 13 14 15 16 17 18 19 20 21 22 23 24 25 26 27 28 29 30 31 32 33 34 35 36 37 38 39 40 41 42 43 44 45 46 47 48 49 50
000
ASUS43 KDTX 050610
RWRMI
MICHIGAN HOURLY REGIONAL WEATHER ROUNDUP
NATIONAL WEATHER SERVICE DETROIT/PONTIAC MI
200 AM EDT THU MAY 05 2016

NOTE: "FAIR" INDICATES FEW OR NO CLOUDS BELOW 12,000 FEET WITH NO
SIGNIFICANT WEATHER AND/OR OBSTRUCTION TO VISIBILITY.

MIZ047>049-052>055-059>063-066>070-074>076-081>083-050700-
SOUTHEAST LOWER MICHIGAN

CITY           SKY/WX    TMP DP  RH WIND       PRES   REMARKS
ADRIAN         LGT RAIN  44  41  89 N3        29.75R
6HR MIN TEMP:  43; 6HR MAX TEMP:  46; 6HR PCP: TRACE;

ALMA           CLOUDY    44  43  94 N10       29.83R
ANN ARBOR      LGT RAIN  48  46  93 NE5       29.74R
BAD AXE        CLEAR     42  41  97 N9        29.81R
CARO           CLOUDY    43  41  94 N5        29.80R
DETROIT CITY   MOCLDY    49  46  90 N5        29.74R
6HR MIN TEMP:  49; 6HR MAX TEMP:  50; 6HR PCP:  0.06;

DETROIT        LGT RAIN  50  48  93 N7        29.74S FOG
6HR MIN TEMP:  48; 6HR MAX TEMP:  50; 6HR PCP:  0.06;

FLINT          MOCLDY    47  42  83 N10       29.79R
6HR MIN TEMP:  47; 6HR MAX TEMP:  53; 6HR PCP:  0.03;

GROSSE ILE     CLOUDY    50  48  93 N3        29.72S
HILLSDALE      LGT RAIN  42  40  93 CALM      29.74S
6HR MIN TEMP:  39; 6HR MAX TEMP:  42;

HOWELL         CLOUDY    45  44  97 N7        29.77R FOG

CITY           SKY/WX    TMP DP  RH WIND       PRES   REMARKS
JACKSON        CLOUDY    45  43  93 N5        29.75R
6HR MIN TEMP:  42; 6HR MAX TEMP:  45; 6HR PCP:  0.02;

LAMBERTVILLE   RAIN      46  43  91 NW6       29.74R
6HR MIN TEMP:  46; 6HR MAX TEMP:  49;

LANSING        CLOUDY    47  44  90 N10       29.80R
6HR MIN TEMP:  47; 6HR MAX TEMP:  50; 6HR PCP:  0.12;

LAPEER         FAIR      42  41  95 N3        29.78R
6HR MIN TEMP:  42; 6HR MAX TEMP:  50;

MASON          CLOUDY    46  44  93 N8        29.77R
MONROE         CLOUDY    46  46  97 W9        29.73S
6HR MIN TEMP:  46; 6HR MAX TEMP:  49; 6HR PCP:  0.05;

MT. CLEMENS    CLEAR     47  47  99 N12       29.73R
6HR MIN TEMP:  46; 6HR MAX TEMP:  51;

PONTIAC        MOCLDY    47  45  93 N13       29.74S FOG
6HR MIN TEMP:  47; 6HR MAX TEMP:  49; 6HR PCP:  0.03;

PORT HOPE        N/A     43  41  93 NW6       29.79S
6HR MIN TEMP:  42; 6HR MAX TEMP:  44;

PORT HURON     PTCLDY    45  43  93 N3        29.75R
TRI CITIES     PTCLDY    46  42  86 N10       29.82R
6HR MIN TEMP:  46; 6HR MAX TEMP:  50; 6HR PCP:  0.03;

MIDLAND        CLOUDY    44  42  93 N7        29.82R
6HR MIN TEMP:  44; 6HR MAX TEMP:  48;

TROY           CLOUDY    49  47  95 N7        29.76R
SAGINAW HB     CLOUDY    45  43  93 N9        29.81R
$$
MIZ043>046-050>051-056>058-064>065-071>073-077>080-050700-
SOUTHWEST LOWER MICHIGAN

CITY           SKY/WX    TMP DP  RH WIND       PRES   REMARKS
BATTLE CREEK   CLOUDY    45  43  93 N5        29.78R
6HR MIN TEMP:  42; 6HR MAX TEMP:  46; 6HR PCP:  0.08;

BENTON HARBOR  CLOUDY    43  39  86 N13G21    29.81R
6HR MIN TEMP:  41; 6HR MAX TEMP:  43; 6HR PCP:  0.19;

BIG RAPIDS     CLOUDY    42  37  82 N8        29.85R
6HR MIN TEMP:  42; 6HR MAX TEMP:  42;

COLDWATER      LGT RAIN  42  41  97 NE3       29.76R
6HR MIN TEMP:  40; 6HR MAX TEMP:  42;

FREMONT        CLOUDY    40  37  90 N7        29.86R
6HR MIN TEMP:  40; 6HR MAX TEMP:  41;

HOLLAND        CLOUDY   N/A N/A N/A N9        29.84R
                                      6HR PCP:  0.01;

GRAND RAPIDS   CLOUDY    46  43  89 N14       29.82R
6HR MIN TEMP:  44; 6HR MAX TEMP:  46; 6HR PCP: TRACE;

IONIA          CLOUDY    45  43  93 N13       29.81R
6HR MIN TEMP:  44; 6HR MAX TEMP:  45; 6HR PCP:  0.01;

KALAMAZOO      LGT RAIN  46  43  89 E3        29.78R
6HR MIN TEMP:  41; 6HR MAX TEMP:  46; 6HR PCP:  0.20;

LUDINGTON      CLOUDY    40  35  83 N7        29.90R
6HR MIN TEMP:  40; 6HR MAX TEMP:  41;

MARSHALL       CLOUDY    44  43  96 CALM      29.76R
6HR MIN TEMP:  42; 6HR MAX TEMP:  46; 6HR PCP:  0.01;

MOUNT PLEASANT CLOUDY    44  42  93 N8          N/A
6HR MIN TEMP:  44; 6HR MAX TEMP:  46; 6HR PCP:  0.02;

MUSKEGON       CLOUDY    42  35  76 N10       29.86R
6HR MIN TEMP:  42; 6HR MAX TEMP:  42; 6HR PCP:  0.04;

SOUTH HAVEN    CLOUDY    43  41  92 N9G17     29.81R
$$
MIZ016>042-050700-
NORTHERN LOWER MICHIGAN

CITY           SKY/WX    TMP DP  RH WIND       PRES   REMARKS
ALPENA         CLOUDY    43  41  93 N6        29.87R
6HR MIN TEMP:  43; 6HR MAX TEMP:  46;

BEAVER ISLAND  PTCLDY    39  35  87 N6        29.93R WCI  35
6HR MIN TEMP:  39; 6HR MAX TEMP:  45;

BELLAIRE       CLOUDY    42  35  77 CALM      29.91R
6HR MIN TEMP:  41; 6HR MAX TEMP:  46;

CADILLAC       CLOUDY    38  35  86 N6        29.87R WCI  34
CHARLEVOIX     CLOUDY    40  37  89 N7        29.94S
FRANKFORT      CLOUDY    40  36  84 NE5       29.92S
GAYLORD        CLOUDY    42  39  89 VRB6      29.88R
6HR MIN TEMP:  42; 6HR MAX TEMP:  43; 6HR PCP:  0.01;

GRAYLING       CLOUDY    43  41  93 N5        29.88R
HARBOR SPRINGS CLOUDY    40  36  83 CALM      29.91R
HOUGHTON LAKE  CLOUDY    42  40  92 N9        29.87R
6HR MIN TEMP:  42; 6HR MAX TEMP:  44; 6HR PCP: TRACE;

MANISTEE       CLOUDY    41  30  65 N8        29.91S
OSCODA         CLEAR     45  42  89 N10       29.83R
6HR MIN TEMP:  45; 6HR MAX TEMP:  50;

PELLSTON       CLOUDY    39  35  86 W5        29.91R
6HR MIN TEMP:  39; 6HR MAX TEMP:  47;

ROGERS CITY    CLOUDY    42  40  91 NW5       29.89R
TRAVERSE CITY  CLOUDY    42  34  73 N6        29.90S
6HR MIN TEMP:  42; 6HR MAX TEMP:  45; 6HR PCP: TRACE;

$$
MIZ007>008-015-050700-
EASTERN UPPER MICHIGAN

CITY           SKY/WX    TMP DP  RH WIND       PRES   REMARKS
KINROSS          N/A     43  41  93 N8        29.90R
6HR MIN TEMP:  41; 6HR MAX TEMP:  43;

MACKINAC ISLAN CLOUDY    42  39  91 N7        29.89S
6HR MIN TEMP:  42; 6HR MAX TEMP:  45;

NEWBERRY       CLEAR     36  35  96 N6        29.93R WCI  31
6HR MIN TEMP:  36; 6HR MAX TEMP:  42;

S. S. MARIE    PTCLDY    44  39  82 N5        29.90S
6HR MIN TEMP:  44; 6HR MAX TEMP:  46; 6HR PCP:  0.02;

MUNISING         N/A     32  30  92 CALM      29.97S
6HR MIN TEMP:  32; 6HR MAX TEMP:  40;

$$
MIZ004>006-011>014-085-050700-
CENTRAL UPPER MICHIGAN

CITY           SKY/WX    TMP DP  RH WIND       PRES   REMARKS
MANISTIQUE     CLEAR     34  32  93 NW7       29.94S WCI  28
6HR MIN TEMP:  33; 6HR MAX TEMP:  42;

ESCANABA       CLEAR     36  30  80 NW7       29.97R WCI  30
MENOMINEE      CLEAR     37  30  75 NW8       29.98S WCI  31
6HR MIN TEMP:  36; 6HR MAX TEMP:  46;

SAWYER-GWINN   CLEAR     33  30  89 N9        29.95S WCI  25
6HR MIN TEMP:  32; 6HR MAX TEMP:  38;

$$
MIZ001>003-009>011-084-050700-
WESTERN UPPER MICHIGAN

CITY           SKY/WX    TMP DP  RH WIND       PRES   REMARKS
IRON MOUNTAIN  CLEAR     31  27  85 CALM      29.97R
6HR MIN TEMP:  31; 6HR MAX TEMP:  43;

HOUGHTON       CLEAR     32  28  85 N7        30.00R WCI  26
6HR MIN TEMP:  32; 6HR MAX TEMP:  45;

COPPER HARBOR    N/A     36  33  89 CALM      30.01R
6HR MIN TEMP:  36; 6HR MAX TEMP:  43;

IRONWOOD         N/A     30  28  93 CALM      29.98S
6HR MIN TEMP:  30; 6HR MAX TEMP:  48;

$$

ABBREVIATIONS USED IN REMARKS
   TC - TEMPERATURE IN CELSIUS
  WCI - WIND CHILL INDEX
   HX - HEAT INDEX
  VSB - VISIBILITY




USA.gov is the U.S. government's official web portal to all federal, state and local government web resources and services.